Location: Brahman Valley
(40.6513°N, 111.8855°W)
Time: 08:29:43
(UTC+00:00)

Tiros 1 despin weight - Pass Details

Date: 21 May 2021
Orbit: 594 x 641 km, 48.2° (Epoch: 22 June)

Event Time Altitude Azimuth Distance (km) Brightness Sun altitude
Rises 01:37:19 0° 256° (WSW) 2,894 ? 10.6°
Reaches altitude 10° 01:39:40 10° 262° (W) 1,997 ? 10.2°
Maximum altitude 01:44:10 52° 339° (NNW) 788 ? 9.4°
Drops below altitude 10° 01:48:44 10° 56° (NE) 2,026 ? 8.6°
Sets 01:51:08 0° 61° (ENE) 2,940 ? 8.1°
